Home > Weather > Yokohama > Past weeks

Flag for Japan Past Weather in Yokohama, Japan — Yesterday and Last 2 Weeks

Now
73 °F

Partly sunny.


Feels Like: 73 °F
Forecast: 72 / 85 °F
Wind: 2 mph from East

Location: Tokyo International Airport

Current Time: Jun 30, 2016 at 12:17:47 PM

Latest Report: Jun 30, 2016 at 11:30 AM


Visibility: N/A

Pressure: 29.89 "Hg

Humidity: 83%

Dew Point: 68 °F

Location of YokohamaLocation

Past Weather in Yokohama — Graph

°F

Yokohama Temperature Yesterday

Maximum temperature yesterday: 75 °F (at 1:00 PM)
Minimum temperature yesterday: 70 °F (at 12:00 AM)
Average temperature yesterday: 72 °F

High & Low Weather Summary for the Past Weeks

 TemperatureHumidityPressure
High88 °F (Jun 18, 12:30 PM)100% (Jun 16, 8:00 PM)29.98 "Hg (Jun 16, 8:00 PM)
Low64 °F (Jun 28, 5:30 AM)35% (Jun 18, 1:00 PM)29.42 "Hg (Jun 25, 5:30 AM)
Average74 °F83%29.76 "Hg
* Reported Jun 15 11:00 AM — Jun 30 11:00 AM, Yokohama, Weather by CustomWeather, © 2016

Note: Actual official high and low records may vary slightly from our data, if they occured in-between our weather recording intervals... More about our weather records

Advertising

Yokohama Weather History for the Previous 24 Hours

Scroll right to see more
 ConditionsComfort  
Time TempWeatherWind HumidityBarometerVisibility
11:00 AM
Thu, Jun 30
72 °FBroken clouds.1 mph88%29.89 "HgN/A
10:30 AM72 °FPartly sunny.2 mph88%29.92 "HgN/A
10:00 AM72 °FPartly sunny.3 mph88%29.92 "HgN/A
9:30 AM72 °FPartly sunny.5 mph88%29.92 "HgN/A
9:00 AM72 °FPartly sunny.6 mph88%29.92 "HgN/A
8:30 AM72 °FPartly sunny.8 mph88%29.92 "HgN/A
8:00 AM72 °FBroken clouds.8 mph94%29.92 "HgN/A
7:45 AM72 °FBroken clouds.8 mph94%29.92 "HgN/A
7:30 AM72 °FPartly sunny.7 mph94%29.92 "HgN/A
7:00 AM72 °FPartly sunny.5 mph88%29.92 "HgN/A
6:30 AM72 °FPartly sunny.3 mph88%29.92 "HgN/A
6:00 AM70 °FPartly sunny.2 mph94%29.92 "HgN/A
5:30 AM70 °FPartly sunny.3 mph94%29.92 "HgN/A
5:00 AM70 °FPartly sunny.1 mph100%29.92 "Hg4 mi
4:30 AM70 °FFog.2 mph100%29.92 "Hg4 mi
4:00 AM70 °FLight rain. Fog.5 mph100%29.92 "Hg4 mi
3:30 AM70 °FLight rain. Fog.2 mph100%29.92 "Hg4 mi
3:00 AM70 °FLight rain. Fog.1 mph100%29.92 "Hg4 mi
2:30 AM70 °FLight rain. Fog.3 mph100%29.92 "Hg4 mi
2:00 AM70 °FLight rain. Fog.5 mph100%29.92 "Hg3 mi
1:30 AM70 °FLight rain. Fog.7 mph94%29.92 "Hg5 mi
1:00 AM70 °FLight rain. Fog.9 mph94%29.92 "Hg3 mi
12:30 AM70 °FLight rain. Fog.7 mph100%29.95 "Hg2 mi
12:00 AM70 °FLight rain. Fog.6 mph100%29.95 "Hg2 mi
11:30 PM
Wed, Jun 29
70 °FLight rain. Fog.8 mph100%29.95 "Hg3 mi
11:00 PM72 °FLight rain. Fog.7 mph94%29.98 "Hg2 mi
10:30 PM72 °FLight rain. Passing clouds.8 mph88%29.95 "HgN/A
10:00 PM72 °FPassing clouds.7 mph88%29.95 "HgN/A
9:30 PM72 °FPassing clouds.7 mph88%29.95 "HgN/A
9:00 PM72 °FPassing clouds.6 mph88%29.95 "HgN/A
8:30 PM72 °FPassing clouds.8 mph88%29.95 "HgN/A
8:00 PM72 °FPartly cloudy.8 mph88%29.95 "HgN/A
7:30 PM72 °FPartly cloudy.8 mph88%29.95 "HgN/A
7:00 PM73 °FPartly cloudy.9 mph83%29.95 "HgN/A
6:30 PM73 °FLight rain. Broken clouds.5 mph83%29.98 "HgN/A
6:00 PM73 °FScattered showers. Broken clouds.5 mph83%29.98 "HgN/A
5:30 PM75 °FLight rain. Partly sunny.5 mph74%29.95 "HgN/A
5:00 PM75 °FLight rain. Broken clouds.5 mph78%29.95 "HgN/A
4:30 PM75 °FPartly sunny.7 mph74%29.95 "HgN/A
4:00 PM75 °FBroken clouds.6 mph74%29.95 "HgN/A
3:30 PM75 °FBroken clouds.5 mph74%29.95 "HgN/A
3:00 PM75 °FPartly sunny.3 mph78%29.95 "HgN/A
2:30 PM75 °FPartly sunny.3 mph78%29.95 "HgN/A
2:00 PM73 °FPartly sunny.3 mph78%29.95 "HgN/A
1:30 PM73 °FPartly sunny.3 mph78%29.95 "HgN/A
1:00 PM75 °FPartly sunny.5 mph74%29.95 "HgN/A
12:30 PM73 °FPartly sunny.3 mph78%29.95 "HgN/A
12:00 PM73 °FBroken clouds.5 mph83%29.95 "HgN/A
Weather by CustomWeather, © 2016

See weather overviewHow to use our weather pages